Location: Batesville
(34.7480°N, 83.6110°W)
Time: 07:55:00
(UTC-04:00)

Tiangong 2 - Visible Passes

Search period start: 17 July 2018 00:00
Search period end: 27 July 2018 00:00
Orbit: 386 x 394 km, 42.8° (Epoch: 17 July)

Date Brightness Start Highest point End Pass type
(mag) Time Alt. Az. Time Alt. Az. Time Alt. Az.
17 Jul 3.5 21:16:16 10° WNW 21:18:51 22° N 21:21:25 10° NE visible
17 Jul 3.4 22:53:56 10° NW 22:56:24 20° N 22:57:16 18° NNE visible
18 Jul 3.6 21:56:09 10° NW 21:58:29 19° N 22:00:50 10° NE visible
18 Jul 3.8 23:32:59 10° NW 23:34:18 20° NNW 23:34:18 20° NNW visible
19 Jul 3.0 22:35:24 10° NW 22:38:06 25° NNE 22:39:01 22° NE visible
20 Jul 3.4 21:37:43 10° NW 21:40:13 20° N 21:42:42 10° ENE visible
20 Jul 3.2 23:14:21 10° NW 23:16:02 27° NW 23:16:02 27° NW visible
21 Jul 2.3 22:16:44 10° NW 22:19:43 36° NNE 22:20:45 28° ENE visible
22 Jul 2.9 21:19:07 10° NW 21:21:53 26° NNE 21:24:37 10° ENE visible
22 Jul 2.5 22:55:46 10° WNW 22:57:48 35° WNW 22:57:48 35° WNW visible
23 Jul 1.3 21:58:04 10° WNW 22:01:14 65° NNE 22:02:34 30° E visible
24 Jul 2.6 22:37:25 10° W 22:39:42 28° WSW 22:39:42 28° WSW visible
25 Jul 1.3 21:39:29 10° WNW 21:42:38 60° SSW 21:44:34 21° SE visible
26 Jul 3.4 22:19:38 10° WSW 22:21:29 14° SW 22:21:49 14° SSW visible
